www.pogodaiklimat.ru
ПОГОДА в Боскомб Даун
Время
(UTC), дата
01 5.08
02 5.08
03 5.08
04 5.08
05 5.08
06 5.08
07 5.08
08 5.08
09 5.08
10 5.08
11 5.08
12 5.08
13 5.08
14 5.08
15 5.08
16 5.08
17 5.08
18 5.08
19 5.08
20 5.08
21 5.08
22 5.08
23 5.08
00 6.08
01 6.08
02 6.08
03 6.08
04 6.08
05 6.08
06 6.08
07 6.08
08 6.08
09 6.08
10 6.08
11 6.08
12 6.08
13 6.08
14 6.08
15 6.08
16 6.08
17 6.08
18 6.08
19 6.08
20 6.08
21 6.08
22 6.08
23 6.08
00 7.08
01 7.08
02 7.08
03 7.08
04 7.08
05 7.08
06 7.08
07 7.08
08 7.08
09 7.08
10 7.08
11 7.08
12 7.08
13 7.08
14 7.08
15 7.08
16 7.08
17 7.08
18 7.08
19 7.08
20 7.08
21 7.08
22 7.08
23 7.08
00 8.08
01 8.08
02 8.08
03 8.08
04 8.08
05 8.08
06 8.08
07 8.08
08 8.08
09 8.08
10 8.08
11 8.08
12 8.08
13 8.08
14 8.08
15 8.08
16 8.08
17 8.08
18 8.08
19 8.08
20 8.08
21 8.08
22 8.08
23 8.08
00 9.08
01 9.08
02 9.08
03 9.08
04 9.08
05 9.08
06 9.08
07 9.08
08 9.08
09 9.08
10 9.08
11 9.08
12 9.08
13 9.08
14 9.08
15 9.08
16 9.08
17 9.08
18 9.08
19 9.08
20 9.08
21 9.08
22 9.08
23 9.08
00 10.08
01 10.08
02 10.08
03 10.08
04 10.08
05 10.08
06 10.08
07 10.08
08 10.08
09 10.08
10 10.08
11 10.08
12 10.08
13 10.08
14 10.08
15 10.08
16 10.08
17 10.08
18 10.08
19 10.08
20 10.08
21 10.08
22 10.08
23 10.08
00 11.08
01 11.08
02 11.08
03 11.08
04 11.08
05 11.08
06 11.08
07 11.08
08 11.08
09 11.08
10 11.08
11 11.08
12 11.08
13 11.08
14 11.08
15 11.08
16 11.08
17 11.08
18 11.08
19 11.08
20 11.08
21 11.08
22 11.08
23 11.08
Ветер
(напр.,м/с)
Видим. Явления Облачность Т
(С)
Тd
(С)
f
(%)
Тe
(С)
Тes
(С)
Комфортность P
(гПа)
Po
(гПа)
Тmin
(С)
Tmax
(С)
R
(мм)
R24
(мм)
S
(см)
0 45 км н/о +15.9 +13.6 86 1013.3 998.4
ЮЗ 7 40 км н/о +16.3 +13.9 86 +15 +15 1012.9 998.0
Ю 7 30 км н/о +16.2 +14.3 89 +15 +15 1012.4 997.5
Ю 7 35 км н/о +16.1 +14.4 90 +15 +15 1012.2 997.3
ЮЗ 6 27 км н/о +16.0 +14.5 91 +15 +15 1012.4 997.5
Ю 5 18 км слаб. морось 10/10 180 м
[Frnb]
+15.9 +14.5 91 +15 +15 1012.5 997.6 +15.4 0.0 0.0
Ю 7 25 км в посл. час зёрна 10/10 180 м
[St]
+16.2 +14.9 92 +15 +15 1012.7 997.8
Ю 6 30 км 9/9 270 м
[St]
+17.3 +15.1 87 +17 +17 1012.7 997.9
Ю 7 30 км {снег} 9/9 450 м
[Cu Sc]
+18.5 +14.4 77 +18 +19 1012.6 997.8
Ю 7 40 км 5/1 800 м
[Cu hum Ac As]
+20.3 +12.5 61 +22 +24 комфорт 1012.1 997.4
Ю 8 40 км 6/1 900 м
[Cu hum Ci sp]
+21.0 +12.2 57 +23 +25 комфорт 1012.3 997.6
Ю 9 40 км {снег} 5/1 1020 м
[Cu hum Ci sp]
+21.3 +11.1 52 +23 +25 комфорт 1012.2 997.6 0.0
Ю 8
{13}
40 км 8/6 720 м
[Cu Sc Ci sp]
+20.2 +13.6 66 +22 +23 комфорт 1012.4 997.7
Ю 9
{13}
40 км 9/8 480 м
[Sc Ci sp]
+18.9 +14.6 76 +19 +19 1012.5 997.8
Ю 7 40 км 9/9 600 м
[Sc Ci fib]
+20.1 +14.7 71 +22 +22 комфорт 1012.3 997.6
ЮЗ 8 40 км 9/8 800 м
[Sc Ci fib]
+20.6 +14.5 68 +23 +23 комфорт 1012.1 997.4
ЮЗ 8
{13}
12 км ливневой дождь н/о +18.0 +14.7 81 +17 +17 1012.7 997.9
ЮЗ 7 50 км в посл. час дождь н/о +17.8 +15.7 88 +17 +17 1012.9 998.1 +23.3 0.4
Ю 7 50 км н/о +17.4 +15.8 90 +16 +16 1013.1 998.2
Ю 5 4900 м дымка н/о +16.8 +16.1 96 +16 +16 1013.6 998.7
ЮЗ 6 3200 м слаб. морось н/о +16.7 +16.4 98 +16 +16 1013.8 998.9
ЮЗ 5 5000 м в посл. час морось н/о +16.9 +16.7 99 +16 +16 1014.1 999.2
ЮЗ 5 19 км н/о +17.1 +16.8 98 +16 +16 1014.3 999.4
ЮЗ 3 6000 м дымка н/о +17.1 +16.7 97 +17 +17 1014.7 999.8 0.0
Ю 4 14 км н/о +17.1 +16.7 97 +17 +17 1014.7 999.8
ЮЗ 3 4900 м дымка н/о +17.0 +16.7 98 +17 +17 1014.9 1000.0
Ю 3 2600 м в посл. час дождь н/о +17.0 +16.8 99 +17 +17 1015.0 1000.1
0 2300 м дымка н/о +17.0 +16.8 99 1015.2 1000.3
0 3100 м в посл. час дождь н/о +17.1 +16.9 99 1015.5 1000.6
Ю 3 4000 м слаб. морось 10/10 60 м
[Frnb]
+17.3 +17.1 99 +17 +17 1015.9 1001.0 +16.7 0.2 0.6
Ю 3 7000 м в посл. час зёрна 10/10 60 м
[St]
+17.5 +17.4 99 +18 +18 1016.3 1001.4
Ю 5 3000 м слаб. морось 10/10 60 м
[Frnb]
+17.9 +17.8 99 +18 +18 1016.9 1002.1
Ю 5 8000 м в посл. час зёрна 10/10 90 м
[St]
+17.7 +17.5 99 +17 +17 1017.3 1002.4
Ю 6 2500 м дождь {снег} 10/10 120 м
[Frnb]
+18.2 +17.8 98 +18 +18 1017.5 1002.6
Ю 5 40 км в посл. час дождь 9/9 240 м
[Sc]
+20.3 +18.6 90 +24 +24 комфорт 1017.5 1002.7
Ю 6 40 км {дождь, снег} 9/9 600 м
[Cu Sc]
+22.7 +17.1 71 +28 +28 душно 1017.2 1002.6 0.2
Ю 6 40 км 9/9 720 м
[Cu Sc]
+22.8 +16.5 68 +27 +28 душно 1017.3 1002.7
Ю 6 40 км 5/5 840 м
[Sc]
+23.5 +16.1 63 +27 +29 душно 1017.2 1002.6
Ю 6 40 км 3/3 1050 м
[Sc Ac trans Ci fib]
+25.0 +15.7 56 +28 +31 жарко 1017.2 1002.6
Ю 5 40 км 3/1 1200 м
[Sc Ac trans]
+25.1 +15.4 55 +28 +31 жарко 1017.0 1002.5
Ю 5 40 км 3/1 1200 м
[Sc Ac trans Ci fib]
+24.9 +15.5 56 +28 +29 жарко 1016.9 1002.4
Ю 4 50 км н/о +23.6 +14.4 56 +26 +26 жарко 1017.0 1002.4 +26.1 0.2
Ю 3 45 км н/о +22.6 +14.6 61 +26 +26 жарко 1017.3 1002.7
Ю 2 45 км н/о +20.0 +14.0 68 +23 +23 комфорт 1017.6 1002.9
Ю 3 50 км н/о +18.9 +14.4 75 +20 +20 1018.2 1003.4
Ю 3 50 км н/о +17.9 +14.5 80 +18 +18 1018.4 1003.5
ЮЗ 1 30 км н/о +16.9 +14.2 84 +18 +18 1018.6 1003.7
В 1 29 км н/о +16.2 +13.7 85 +17 +17 1018.5 1003.5
ЮВ 2 40 км н/о +16.4 +14.1 86 +17 +17 1018.4 1003.4
В 2 24 км н/о +16.2 +13.6 85 +17 +17 1018.3 1003.3
В 2 10 км н/о +15.3 +13.9 91 +15 +15 1018.3 1003.3
СВ 3 12 км н/о +15.9 +14.7 93 +16 +16 1018.3 1003.3
В 3 10 км н/о +15.2 +14.5 96 +15 +15 1018.4 1003.4
С 1 15 км ясно +15.1 +13.5 90 +16 +16 1018.4 1003.4 +14.2 0.2
В 3 20 км 1/0
[Ac trans]
+18.1 +15.6 85 +19 +21 1018.3 1003.4
СВ 2 30 км 1/0
[Ac trans]
+21.1 +16.3 74 +24 +29 комфорт 1018.3 1003.6
В 2 30 км 1/0
[Ac cast]
+24.3 +14.4 54 +27 +35 жарко 1017.9 1003.4
ЮВ 3 40 км 1/0
[Ac trans]
+27.8 +14.2 43 +30 +39 жарко 1017.6 1003.2
ЮВ 4 40 км 1/1 1500 м
[Cu hum Ac trans]
+29.1 +13.0 37 +30 +40 жарко 1017.3 1002.9
ЮВ 2 40 км 1/1 1500 м
[Cu hum Ac trans]
+30.8 +13.5 35 +32 +45 жарко 1016.9 1002.6
ЮЗ 4 40 км 5/0
[Ac cast Ci fib]
+31.5 +12.4 31 +32 +38 жарко 1017.0 1002.8
Ю 4 40 км 8/0
[Ac cast]
+31.3 +12.4 31 +32 +36 жарко 1017.0 1002.8
ЮВ 4 40 км 9/0
[Ac cast]
+29.8 +11.7 33 +30 +33 жарко 1016.3 1002.0
Ю 3 45 км в посл. час дождь н/о +27.1 +13.7 44 +29 +29 жарко 1016.6 1002.2
З 2 35 км в посл. час дождь н/о +26.8 +17.2 56 +31 +31 душно 1016.9 1002.5
СЗ 4 40 км н/о +26.7 +17.5 57 +31 +31 душно 1016.8 1002.4 +32.5 0.0
СЗ 4 50 км н/о +25.5 +17.9 63 +30 +30 душно 1017.1 1002.6
СЗ 3 50 км н/о +22.9 +15.9 65 +27 +27 душно 1017.7 1003.1
С 2 35 км н/о +22.0 +15.9 68 +26 +26 душно 1018.2 1003.5
СЗ 4 45 км н/о +20.7 +15.9 74 +24 +24 комфорт 1018.7 1003.9
СЗ 3 50 км н/о +19.9 +15.7 77 +23 +23 комфорт 1018.8 1004.0
СЗ 4 50 км н/о +19.0 +15.7 81 +20 +20 1019.0 1004.1
СЗ 4 40 км н/о +18.1 +15.6 85 +18 +18 1019.1 1004.2
СЗ 3 35 км н/о +17.6 +15.5 87 +18 +18 1018.8 1003.9
СЗ 2 26 км н/о +17.0 +15.0 88 +17 +17 1019.2 1004.2
СЗ 3 35 км н/о +16.6 +15.0 90 +16 +16 1019.2 1004.2
СЗ 4 45 км н/о +16.3 +14.9 91 +16 +16 1019.5 1004.5
СЗ 3 45 км н/о +16.9 +15.4 91 +17 +17 1019.4 1004.4 +16.1 0.0
С 3 35 км н/о +19.1 +17.0 88 +21 +21 комфорт 1019.6 1004.8
С 5 50 км н/о +22.1 +17.9 77 +27 +27 душно 1019.7 1005.0
С 6 45 км н/о +23.8 +18.2 71 +28 +28 душно 1019.5 1004.9
С 5 50 км н/о +25.8 +17.8 61 +30 +30 душно 1019.4 1004.9
С 6 30 км н/о +27.0 +18.3 59 +32 +32 очень
душно
1019.3 1004.8
С 6 40 км н/о +27.2 +17.9 57 +32 +32 очень
душно
1019.4 1004.9
С 5 30 км н/о +27.0 +17.8 57 +31 +31 душно 1019.3 1004.8
СВ 6 50 км н/о +28.0 +16.7 50 +32 +32 душно 1018.9 1004.5
0 35 км н/о +29.2 +17.1 48 1018.5 1004.2
СВ 5 40 км н/о +29.3 +17.1 48 +33 +33 душно 1018.1 1003.8
СВ 4 45 км н/о +29.5 +16.9 47 +33 +33 душно 1017.7 1003.4
СВ 5 35 км н/о +28.8 +17.3 50 +33 +33 очень
душно
1017.6 1003.3 +30.0
С 6 45 км н/о +26.5 +16.9 56 +30 +30 душно 1018.0 1003.6
СВ 6 50 км н/о +24.0 +16.3 62 +27 +27 жарко 1018.6 1004.0
СВ 6 40 км н/о +22.2 +15.4 65 +26 +26 душно 1019.0 1004.3
С 4 40 км н/о +20.5 +14.8 70 +23 +23 комфорт 1019.1 1004.3
СВ 4 30 км н/о +19.2 +14.8 76 +21 +21 комфорт 1019.2 1004.4
СВ 4 40 км н/о +18.5 +15.0 80 +19 +19 1019.3 1004.4
СВ 4 22 км н/о +17.1 +14.5 85 +17 +17 1019.3 1004.4
С 4 16 км н/о +16.4 +14.6 89 +16 +16 1019.5 1004.5
С 5 9000 м дым н/о +16.0 +14.5 91 +15 +15 1019.4 1004.4
С 5 8000 м дым н/о +15.9 +14.5 91 +15 +15 1019.2 1004.2
С 5 8000 м дым н/о +15.9 +14.5 91 +15 +15 1019.2 1004.2
С 5 10 км н/о +16.0 +14.5 91 +15 +15 1019.5 1004.5 +15.8
С 6 13 км н/о +16.3 +14.5 89 +15 +15 1019.5 1004.5
С 5 22 км н/о +16.9 +14.7 87 +16 +16 1019.4 1004.4
С 5 27 км н/о +18.4 +15.1 81 +19 +19 1019.2 1004.3
СВ 4 30 км н/о +20.0 +15.1 73 +22 +22 комфорт 1018.5 1003.7
С 4 35 км н/о +22.4 +16.0 67 +27 +27 душно 1018.0 1003.3
С 4 29 км н/о +23.7 +16.4 64 +27 +27 жарко 1017.6 1003.0
С 4 19 км н/о +25.4 +16.8 59 +29 +29 душно 1017.1 1002.5
С 4 27 км н/о +27.5 +17.5 54 +32 +32 очень
душно
1016.7 1002.3
С 4 30 км н/о +28.1 +16.9 51 +32 +32 душно 1016.2 1001.8
С 4 22 км н/о +29.0 +17.5 50 +33 +33 очень
душно
1015.7 1001.4
С 4 35 км н/о +28.9 +17.8 51 +33 +33 очень
душно
1015.1 1000.8
С 6 24 км н/о +27.3 +17.4 55 +31 +31 душно 1014.9 1000.5 +29.5
СЗ 6 35 км н/о +26.0 +17.4 59 +30 +30 душно 1015.0 1000.6
СЗ 5 27 км н/о +24.0 +17.3 66 +28 +28 душно 1015.2 1000.7
С 4 40 км н/о +22.4 +16.9 71 +27 +27 душно 1015.5 1000.9
С 4 35 км н/о +21.1 +16.8 76 +25 +25 комфорт 1015.6 1000.9
С 4 30 км н/о +21.0 +17.3 79 +25 +25 комфорт 1015.5 1000.8
С 5 22 км н/о +20.4 +17.2 82 +24 +24 комфорт 1015.2 1000.4
С 5 22 км н/о +19.5 +16.7 84 +21 +21 комфорт 1014.9 1000.2
С 4 16 км н/о +18.9 +16.5 86 +20 +20 1014.7 999.9
С 4 12 км н/о +18.1 +16.3 89 +18 +18 1014.4 999.6
С 4 12 км н/о +17.8 +16.2 90 +18 +18 1014.0 999.2
С 6 9000 м дым н/о +17.0 +15.9 93 +16 +16 1013.8 998.9
С 4 5000 м мгла 9/9 90 м
[St]
+17.3 +16.6 96 +17 +17 1013.8 998.9 +17.0
СВ 5 7000 м мгла 9/9 150 м
[St Ci fib]
+18.2 +17.0 93 +18 +18 1014.3 999.5
СВ 5 10 км 5/3 360 м
[Cu hum Ac cast]
+20.4 +17.4 83 +24 +25 комфорт 1014.3 999.6
СВ 5 15 км 5/1 600 м
[Cu hum Ac cast Ci fib]
+22.1 +17.5 75 +27 +30 душно 1013.8 999.2
В 4 18 км 9/0
[Ac trans Ci fib]
+23.5 +18.0 71 +28 +33 душно 1013.8 999.3
В 4 20 км 9/0
[Ci fib]
+25.4 +18.0 64 +30 +37 душно 1013.3 998.9
ЮВ 5 20 км 9/1 1200 м
[Cu hum Ci fib]
+28.0 +18.4 56 +33 +39 очень
душно
1013.0 998.6
ЮВ 6 20 км 8/1 1350 м
[Cu hum Ci fib]
+29.5 +17.0 47 +33 +37 душно 1012.9 998.6
Ю 5 20 км 4/1 1350 м
[Cu hum Ci fib]
+29.5 +16.9 47 +33 +33 душно 1012.9 998.7
ЮВ 4 25 км 4/0
[Ac cast Ci fib]
+28.9 +17.4 50 +33 +38 очень
душно
1012.9 998.6
Ю 5 25 км 6/0
[Ac cast Ci fib]
+28.4 +17.4 51 +32 +34 душно 1012.8 998.4
Ю 3 30 км н/о +26.4 +17.3 57 +30 +30 душно 1012.8 998.4
Ю 2 22 км в посл. час дождь н/о +25.2 +18.5 66 +30 +30 душно 1012.9 998.4 +30.3 0.0
ЮЗ 1 18 км н/о +24.3 +18.2 69 +29 +29 душно 1013.0 998.5
Ю 2 19 км н/о +23.2 +18.2 73 +29 +29 душно 1013.7 999.1
ЮВ 1 14 км н/о +22.3 +18.0 77 +27 +27 душно 1014.0 999.3
Ю 1 14 км н/о +21.9 +18.4 81 +27 +27 душно 1014.2 999.6
ЮВ 2 14 км н/о +21.0 +18.1 84 +26 +26 душно 1014.4 999.7
Ю 1 8000 м дым н/о +20.4 +18.1 87 +25 +25 комфорт 1014.1 999.4
ЮВ 1 10 км н/о +19.3 +17.4 89 +22 +22 комфорт 1014.4 999.7
ЮВ 1 2300 м дым н/о +18.6 +17.4 93 +21 +21 комфорт 1014.3 999.5
В 1 5000 м дымка н/о +18.5 +17.7 95 +20 +20 1014.2 999.4
З 1 3600 м в посл. час туман н/о +18.3 +17.6 96 +20 +20 1014.3 999.5
СЗ 2 1700 м дымка н/о +17.7 +17.0 96 +18 +18 1014.5 999.6
СЗ 2 700 м туман местами 4/0
[Ac trans Ci fib]
+17.5 +17.0 97 +18 +19 1015.0 1000.1 +17.3 0.0
СЗ 2 1500 м туман на расстоянии 3/0
[Ac trans Ci fib]
+18.3 +17.9 98 +20 +22 1015.0 1000.2
С 2 6000 м мгла 1/0
[Ac trans Ci fib]
+21.7 +19.0 85 +27 +31 душно 1014.9 1000.2
С 2 10 км {туман} 1/0
[Ac trans Ci fib]
+24.6 +19.3 72 +30 +38 очень
душно
1014.9 1000.4
ЮВ 2 15 км 1/0
[Ci fib]
+26.9 +18.9 62 +32 +43 очень
душно
1014.6 1000.2
ЮВ 3 20 км 3/0
[Ci fib]
+29.6 +17.6 48 +34 +45 очень
душно
1014.2 1000.0
ЮВ 3 20 км 3/0
[Ci fib]
+31.1 +15.3 38 +33 +45 душно 1014.0 999.8
Ю 3 25 км 1/1 1500 м
[Cu hum Ac trans Ci fib]
+32.2 +15.7 37 +35 +46 очень
душно
1013.6 999.5
ЮВ 2 30 км 1/1 1500 м
[Cu hum Ci fib]
+32.3 +16.0 38 +35 +46 очень
душно
1013.2 999.1
Ю 4 30 км 3/1 1500 м
[Cu med, cong Ac trans Ci fib]
+32.5 +16.8 39 +36 +40 очень
душно
1013.1 999.0
Ю 4 30 км 3/1 1500 м
[Cu med, cong Ac trans]
+32.1 +15.9 38 +35 +38 очень
душно
1012.7 998.5
Ю 3 40 км н/о +31.6 +15.3 37 +34 +34 душно 1012.4 998.2
Ю 4 50 км н/о +30.5 +14.7 38 +33 +33 душно 1012.7 998.5 +33.0
Ю 3 45 км н/о +28.4 +15.8 46 +31 +31 душно 1013.3 999.0
Ю 3 45 км н/о +25.4 +15.7 55 +29 +29 душно 1013.7 999.2
З 3 35 км н/о +25.0 +15.8 57 +28 +28 жарко 1014.2 999.7
З 3 35 км н/о +24.6 +17.7 65 +29 +29 душно 1014.1 999.6
ЮЗ 2 40 км н/о +22.5 +15.5 65 +26 +26 жарко 1013.8 999.2
Местоположение метеостанции Боскомб Даун (Великобритания): широта 51.17 долгота -1.75 высота над уровнем моря 126 м.
В архиве по умолчанию представлена погода в Боскомб Даун за последнюю неделю. Архивные данные за месяц целиком и за предыдущие месяцы, начиная с января 2011 года, Вы можете получить, выбрав интересующий диапазон дат из раскрывающегося списка и нажав кнопку "Найти!".
*Определитесь, кто Вы:
Внимание! Время в таблицах - всемирное. Для получения местного времени необходимо прибавить поправку, которая равна 0 ч.
Смотрите также архив погоды в соседних городах и на ближайших метеорологических станциях:
Партнеры нашего сайта:      
Пояснения к столбцам:
  • Ветер - указаны скорость ветра в м/с - средняя за 10 мин, порывы в срок и между сроками (в фигурных скобках) и направление, откуда дует ветер: С - северный,
  • СВ - северо-восточный, В - восточный, ЮВ - юго-восточный, Ю - южный, ЮЗ - юго-западный, З - западный, СЗ - северо-западный.
  • Видимость - горизонтальная дальность видимости в метрах или километрах. При видимости от 1 до 10 км при отсутствии осадков обычно наблюдается дымка, при ухудшении видимости до 1 км и менее - туман. В сухую погоду видимость может ухудшаться дымом, пылью или мглою.
  • Явления - указаны атмосферные явления, наблюдавшиеся в срок или в последний час перед сроком; фигурными скобками обозначены явления, наблюдавшиеся между сроками (за 1-3 часа до срока); квадратными скобками обозначены град или гололедные отложения с указанием их диаметра в мм.
  • Облачность - указаны через наклонную черту общая и нижняя облачность в баллах и высота нижней границы облаков в метрах; квадратными скобками обозначены формы облаков: Ci - перистые, Cs - перисто-слоистые, Cc - перисто-кучевые, Ac - высококучевые, As - высокослоистые, Sc - слоисто-кучевые, Ns - слоисто-дождевые, Cu - кучевые, Cb - кучево-дождевые. Подробнее классификацию облаков см. в Атласе облаков (PDF).
  • T - Температура воздуха - температура, измеренная на высоте 2 м над землей.
  • Td - Температура точки росы - температура, при понижении до которой содержащийся в воздухе водяной пар достигнет насыщения.
  • f - Относительная влажность воздуха - влажноcть воздуха, измеренная на высоте 2 м над землей.
  • Te - Эффективная температура - температура, которую ощущает одетый по сезону человек в тени. Характеристика душности погоды. При расчете учитывается влияние влажности воздуха и скорости ветра на теплоощущения человека.
  • Tes - Эффективная температура на солнце - температура, которую ощущает человек, с поправкой на солнечный нагрев. Характеристика знойности погоды. Зависит от высоты солнца над горизонтом, облачности и скорости ветра. Ночью, в пасмурную погоду, а также при ветре 12 м/с и более поправка равна нулю.
  • P - Атмосферное давление - приведенное к уровню моря атмосферное давление.
  • Po - Атмосферное давление - измеренное на уровне метеостанции атмосферное давление.
  • Tmin - Минимальная температура - минимум температуры воздуха на высоте 2 м над землей.
  • Tmax - Максимальная температура - максимум температуры воздуха на высоте 2 м над землей.
  • R - Количество осадков - Количество выпавших осадков за период времени, мм. При наведении курсора мыши на число - период времени, за который выпало указанное количество осадков.
  • R24 - Количество осадков - Количество выпавших осадков за 24 часа, мм.
  • S - Снежный покров - Высота снежного покрова, см. При наведении курсора мыши на число - состояние снежного покрова и степень покрытия местности в баллах.